Date,TemperatureHighF,TemperatureAvgF,TemperatureLowF,DewpointHighF,DewpointAvgF,DewpointLowF,HumidityHigh,HumidityAvg,HumidityLow,PressureMaxIn,PressureMinIn,WindSpeedMaxMPH,WindSpeedAvgMPH,GustSpeedMaxMPH,PrecipitationSumIn
2013-5-1,74,46,26,30,22,16,76,46,13,28.70,28.50,7,1,7,0.00
2013-5-2,82,54,30,38,29,20,85,45,12,28.70,28.41,8,1,8,0.00
2013-5-3,87,57,36,41,32,25,77,44,13,28.50,28.32,8,1,8,0.00
2013-5-4,88,58,35,38,31,17,81,44,9,28.47,28.23,10,1,10,0.00
2013-5-5,94,60,40,40,31,16,75,41,6,28.29,28.05,10,1,10,0.00
2013-5-6,97,64,43,45,32,17,72,37,6,28.11,27.93,6,1,6,0.00
2013-5-7,98,68,51,46,37,26,58,36,8,28.08,27.96,9,1,9,0.00
2013-5-8,100,69,49,49,39,25,72,39,8,28.23,28.08,10,1,10,0.00
2013-5-9,101,68,46,45,30,16,60,31,5,28.29,28.17,8,1,8,0.00
2013-5-10,99,70,46,43,31,16,55,29,6,28.32,28.23,12,1,12,0.00
2013-5-11,95,71,53,49,38,25,60,34,9,28.32,28.17,8,1,8,0.00
2013-5-12,78,64,52,54,41,35,74,47,24,28.20,28.14,17,2,17,0.00
2013-5-13,68,54,39,49,43,36,92,69,35,28.26,28.05,11,0,11,0.13
2013-5-14,74,51,36,43,34,20,95,61,13,28.35,28.20,8,1,8,0.00
2013-5-15,76,56,36,42,36,30,86,52,21,28.26,28.08,8,1,8,0.00
2013-5-16,76,56,43,51,44,37,88,68,31,28.14,28.02,8,0,8,0.00
2013-5-17,77,55,40,54,43,38,96,67,33,28.11,28.05,7,1,7,0.04
2013-5-18,74,58,43,45,38,33,76,50,25,28.32,28.11,8,1,8,0.00
2013-5-19,80,58,40,42,36,32,80,51,21,28.44,28.32,9,1,9,0.00
2013-5-20,82,58,38,44,38,33,90,53,20,28.44,28.05,8,1,8,0.00
2013-5-21,56,47,36,51,43,34,95,87,71,28.05,27.85,6,0,6,0.83
2013-5-22,55,45,36,46,39,33,97,81,47,28.14,27.93,8,0,8,0.45
2013-5-23,59,47,40,47,41,37,95,81,46,28.20,28.14,5,0,5,0.21
2013-5-24,58,41,35,46,38,34,98,89,52,28.17,28.11,4,0,4,0.00
2013-5-25,72,51,35,45,38,33,96,67,26,28.17,28.11,8,1,8,0.00
2013-5-26,67,53,40,49,43,37,94,72,44,28.17,28.08,8,0,8,0.00
2013-5-27,62,51,38,50,45,37,96,81,50,28.11,27.96,6,0,6,0.12
2013-5-28,77,55,42,51,42,34,98,68,25,27.99,27.93,10,1,10,0.00
2013-5-29,64,50,40,51,44,38,92,80,46,28.05,27.88,8,0,8,0.13
2013-5-30,74,53,34,49,34,28,98,58,22,28.32,28.05,12,2,12,0.00
2013-5-31,77,55,37,43,36,30,90,55,21,28.41,28.32,9,1,9,0.00